Lid_Strength_Index
7 9 10 9 8 8 8 10 10 8 7 9 10 9 8 7 6 7 7 6 5 4 3 3 3 2 3 3 4 4 4 4 3 3 3 3 2 2 1 1 1 1 1 0
8 10 8 7 7 7 8 9 10 8 8 10 10 10 8 8 7 7 7 6 5 5 5 4 3 3 3 4 4 4 4 4 3 4 2 2 1 2 2 1 1 1 1 1
9 8 5 7 8 8 9 9 9 10 9 8 10 11 10 8 7 6 6 5 5 5 5 4 3 3 3 3 3 3 4 4 3 3 2 2 1 2 2 2 1 1 1 0
8 7 7 7 8 8 11 7 8 9 11 15 10 16 10 10 9 8 7 6 5 5 4 4 4 4 3 3 3 2 4 4 3 2 2 2 3 3 2 2 1 1 1 1
9 8 8 9 8 7 8 7 8 9 12 12 12 15 12 10 11 10 8 6 5 4 4 4 4 3 3 3 3 2 3 2 2 2 1 2 3 2 2 2 2 2 1 1
7 6 7 8 7 7 5 8 9 10 12 16 12 13 14 13 11 10 7 6 5 5 4 4 3 4 3 2 2 2 2 2 1 1 1 2 3 3 3 2 2 2 1 1
8 7 7 6 8 7 8 11 15 16 17 18 11 13 13 10 8 7 7 6 5 5 5 4 4 4 4 3 3 2 2 2 1 1 1 2 2 2 2 2 2 3 3 2
11 11 8 6 7 9 9 11 14 18 18 16 12 15 11 8 7 7 6 6 5 5 5 4 4 4 3 3 3 2 2 2 2 1 2 1 1 2 2 2 2 2 3 2
11 10 7 6 6 7 9 12 9 13 14 17 15 12 9 9 8 7 7 6 6 5 5 4 4 3 3 3 3 3 2 2 2 1 1 1 2 2 2 2 2 2 2 1
8 11 7 6 6 6 8 8 12 13 18 19 16 14 14 11 9 8 7 7 6 5 5 4 4 3 3 3 3 2 2 2 2 1 2 1 2 2 1 2 2 2 1 1
8 10 10 8 9 10 10 10 12 12 14 18 18 16 9 10 9 8 7 6 6 6 5 4 4 3 3 2 3 2 2 2 2 4 3 1 1 1 1 2 2 1 2 1
7 9 12 10 7 6 8 10 12 15 15 14 14 16 8 9 8 7 7 6 6 5 5 4 4 3 3 4 3 3 3 2 2 2 3 1 1 1 1 2 2 1 1 1
8 11 14 13 10 8 9 9 9 11 11 14 16 15 8 8 7 7 7 6 5 5 5 4 4 4 3 3 3 3 2 3 2 2 2 2 3 3 3 2 1 1 1 1
7 11 13 14 12 10 11 9 8 10 13 13 13 12 10 9 8 7 6 6 6 5 5 5 5 4 3 3 3 3 3 2 2 2 3 2 2 2 2 2 1 1 1 1
8 13 10 9 8 9 9 9 9 10 10 12 12 11 10 8 8 7 6 6 5 5 5 5 4 4 4 3 3 3 2 2 2 2 2 2 2 2 2 1 1 1 1 2
8 12 11 11 9 9 10 9 8 9 10 9 9 11 8 7 6 6 6 6 6 6 5 4 4 4 4 3 3 2 3 2 2 3 3 2 2 2 2 2 2 2 3 3
10 11 12 14 11 10 13 10 9 8 8 9 12 10 7 7 7 7 6 6 6 5 5 4 4 4 3 3 3 3 2 2 3 3 2 2 2 2 2 1 3 3 3 3
10 11 11 13 12 17 11 8 7 9 8 8 8 8 7 7 6 6 5 6 5 5 4 4 4 4 3 3 2 2 2 2 2 2 2 2 2 2 2 3 3 3 3 3
8 10 13 14 15 12 11 9 9 10 11 8 8 7 7 6 6 6 4 4 5 5 4 4 3 3 3 2 2 2 3 3 2 2 2 2 3 4 3 2 3 3 2 3
7 9 11 13 15 17 12 8 6 7 14 7 7 7 7 7 11 8 5 4 4 3 3 3 3 3 3 3 3 3 3 2 2 2 2 2 3 4 4 3 2 3 3 2
11 11 13 13 14 12 8 7 6 13 13 7 6 7 7 9 7 6 4 4 4 4 3 3 3 3 3 3 4 4 3 3 2 1 2 3 4 5 4 3 3 3 3 2
12 13 13 13 15 17 7 7 11 9 7 6 6 7 7 6 5 5 4 4 4 4 3 3 3 3 3 3 3 3 4 3 2 3 3 3 4 4 2 3 3 2 2 3
12 10 12 11 12 8 7 7 6 5 6 6 7 6 6 6 6 5 5 4 4 4 3 3 3 3 4 2 3 5 4 3 4 3 4 4 4 4 3 3 3 3 3 3
9 8 10 10 8 8 6 5 5 5 5 5 5 5 5 6 5 5 5 4 4 4 4 3 4 3 4 4 3 4 3 3 3 5 5 5 4 4 3 3 3 3 3 4
9 8 10 10 8 7 6 5 5 5 4 4 4 4 5 5 5 5 5 4 4 4 3 3 3 3 4 3 3 3 3 4 5 5 4 4 4 4 4 4 4 4 4 4
7 8 10 11 7 8 7 5 4 5 5 4 4 5 4 4 4 4 4 4 4 4 3 3 3 4 3 3 3 3 3 3 5 5 5 5 5 4 4 4 4 6 6 7